Content
SEND FEEDBACK

Daily
Averages
Monthly
Summary
United States of America

NEW YORK - CENTRAL PARK, NEW YORK


Home > North America > United States > New York
Elevation: 4 meters     Latitude: 40 47N     Longitude: 073 58W

WEATHER
 
SELECT A DAY
Number of Records: 148,413;   Date Range: 11/1/95 - 9/21/14
 
SHARE

PRINT THIS DATA

[ ← Previous Day ]
WEATHER ALMANAC - 1 JANUARY, 2013
[ Next Day → ]
[ °F ]   °C
Weather ElementAverageHighLow
Temperature2.2 °C3.9 °C (2:51 am)-3.3 °C (11:51 pm)
Dewpoint-5.8 °C-2.8 °C (2:51 am)-12.8 °C (10:51 pm)
Humidity56.4 %65 % (7:51 am)46 % (5:51 pm)
Barometer1012.5 hPa1016.3 hPa (10:51 pm)1010.5 hPa (1:51 pm)
Wind Speed11.1 km/h18.5 km/h (9:51 pm)
Wind Gust35.2 km/h (12:51 pm)
Weather ElementAverage
Visibility16.1 km
Wind DirectionESE (111.7 °)

Weather ElementTotal
Precipitation---
Heating Degree Days18.1 (Base 18.3)
Averaged from 23 records on 1 January, 2013
WEATHER CONDITIONS BREAKOUT
WIND DIRECTION BREAKOUT
WEATHER BY HOUR - 1 JANUARY, 2013
[ °F ]   °C
Local TimeTemperatureDewpointHumidityBarometerVisibilityWind DirectionWind SpeedGust SpeedPrecipitationEventsConditions
1:51 AM3.3 °C-3.3 °C62 %1011.9 hPa16.1 kmVariable5.6 km/h27.8 km/hOvercast
2:51 AM3.9 °C-2.8 °C62 %1011.9 hPa16.1 kmVariable11.1 km/hOvercast
3:51 AM3.9 °C-2.8 °C62 %1011.9 hPa16.1 kmWest (260°)14.8 km/hOvercast
4:51 AM3.9 °C-2.8 °C62 %1011.9 hPa16.1 kmVariable11.1 km/hOvercast
5:51 AM3.9 °C-3.3 °C60 %1011.2 hPa16.1 kmVariable11.1 km/h33.3 km/hOvercast
6:51 AM3.9 °C-3.3 °C60 %1011.9 hPa16.1 kmWest (260°)16.7 km/h33.3 km/hOvercast
7:51 AM3.3 °C-2.8 °C65 %1011.9 hPa16.1 kmWest (260°)11.1 km/hOvercast
8:51 AM3.9 °C-2.8 °C62 %1011.9 hPa16.1 kmVariable11.1 km/h33.3 km/hOvercast
9:51 AM3.9 °C-2.8 °C62 %1012.2 hPa16.1 kmWest (260°)16.7 km/h27.8 km/hPartly Cloudy
10:51 AM3.9 °C-2.8 °C62 %1011.9 hPa16.1 kmVariable9.3 km/hOvercast
11:51 AM3.9 °C-3.3 °C60 %1011.2 hPa16.1 kmVariable7.4 km/h25.9 km/hOvercast
12:51 PM2.8 °C-3.9 °C62 %1011.2 hPa16.1 kmWNW (300°)14.8 km/h35.2 km/hOvercast
1:51 PM2.8 °C-3.9 °C62 %1010.5 hPa16.1 kmCalmOvercast
2:51 PM3.3 °C-4.4 °C57 %1010.5 hPa16.1 kmVariable11.1 km/hMostly Cloudy
3:51 PM3.3 °C-6.1 °C51 %1011.5 hPa16.1 kmVariable11.1 km/hScattered Clouds
4:51 PM2.2 °C-7.8 °C48 %1011.9 hPa16.1 kmNW (310°)16.7 km/h33.3 km/hClear
5:51 PM1.7 °C-8.9 °C46 %1013.2 hPa16.1 kmVariable7.4 km/hClear
6:51 PM0.6 °C-9.4 °C48 %1013.9 hPa16.1 kmNW (310°)9.3 km/hClear
7:51 PM0 °C-10 °C48 %1014.2 hPa16.1 kmVariable7.4 km/hClear
8:51 PM-1.1 °C-10.6 °C49 %1014.9 hPa16.1 kmVariable11.1 km/hClear
9:51 PM-1.7 °C-11.1 °C49 %1015.6 hPa16.1 kmNW (310°)18.5 km/h35.2 km/hClear
10:51 PM-2.8 °C-12.8 °C47 %1016.3 hPa16.1 kmNorthClear
11:51 PM-3.3 °C-12.2 °C51 %1016.3 hPa16.1 kmWNW (300°)9.3 km/hClear
Hourly data recorded from KNYC, located 0 kilometers away from New York - Central Park, New York







STORIES FROM OUR PARTNERS